Regional Weather Roundup
Issued by NWS

Home | Current Version | Previous Version | Graphics & Text | Print | Product List | Glossary On
Versions: 1 2 3 4 5 6 7 8 9 10 11 12 13 14 15 16 17 18 19 20 21 22 23 24 25 26 27 28 29 30 31 32 33 34 35 36 37 38 39 40 41 42 43 44 45 46 47 48 49 50
041
ASUS43 KOAX 200502
RWRNE

WEATHER ROUNDUP FOR NEBRASKA
NATIONAL WEATHER SERVICE OMAHA NE
1100 PM CST FRI JAN 19 2018

NOTES: SATELLITE DATA IS BEING USED TO AUGMENT CLOUD COVER ABOVE
       12000 FEET.
       "FAIR" INDICATES FEW OR NO CLOUDS BELOW 12,000 FEET WITH NO
       SIGNIFICANT WEATHER AND/OR OBSTRUCTIONS TO VISIBILITY.


NEZ001>004-019>022-054>056-200600-
NEBRASKA PANHANDLE

CITY           SKY/WX    TMP DP  RH WIND       PRES   REMARKS
SCOTTSBLUFF    MOCLDY    35  29  78 S3        29.77R
ALLIANCE       MOCLDY    27  26  96 S3        29.76S
CHADRON        PTCLDY    28  26  92 CALM      29.77S
GORDON         FAIR      27  26  93 SW7       29.78R WCI  20
SIDNEY         CLOUDY    36  25  64 SE5       29.76R WCI  32
$$

NEZ057>060-069>072-079>082-200600-
SOUTHWEST NEBRASKA

CITY           SKY/WX    TMP DP  RH WIND       PRES   REMARKS
NORTH PLATTE   CLOUDY    33  29  85 N3        29.78S
IMPERIAL       CLOUDY    32  28  85 N9        29.75S WCI  24
LEXINGTON      CLOUDY    32  29  90 NW7       29.77R WCI  26
MCCOOK         CLOUDY    32  25  75 NW5       29.74R WCI  27
OGALLALA       CLOUDY    37  32  82 NE7       29.77S WCI  31
$$

NEZ005>010-023>029-035>040-094-200600-
NORTH CENTRAL NEBRASKA

CITY           SKY/WX    TMP DP  RH WIND       PRES   REMARKS
VALENTINE      CLEAR     30  27  88 W7        29.78R WCI  23
AINSWORTH      MOCLDY    32  30  94 W6        29.78R WCI  26
BROKEN BOW     CLOUDY    38  31  76 W5        29.77R WCI  34
O`NEILL        CLOUDY    34  32  92 NW6       29.77R WCI  29
ORD            CLOUDY    36  31  82 NW8       29.76R WCI  30
THEDFORD       CLOUDY    32  30  93 CALM      29.80R
$$

NEZ041-046>049-061>064-073>077-083>087-200600-
SOUTH CENTRAL NEBRASKA

CITY           SKY/WX    TMP DP  RH WIND       PRES   REMARKS
GRAND ISLAND   CLOUDY    32  30  92 N7        29.76R WCI  26
AURORA         CLOUDY    32  26  79 N5        29.75R WCI  27
HASTINGS       CLOUDY    31  24  75 N3        29.75R
HEBRON         CLOUDY    31  26  83 CALM      29.76S
HOLDREGE       CLOUDY    34  29  81 NE10      29.74S WCI  26
KEARNEY        CLOUDY    35  30  82 N6        29.75R WCI  30
YORK           CLOUDY    32  28  86 NW3       29.75S
$$

NEZ011>018-030>034-042>045-200600-
NORTHEAST NEBRASKA

CITY           SKY/WX    TMP DP  RH WIND       PRES   REMARKS
NORFOLK        CLOUDY    35  30  82 W3        29.75R
ALBION         CLOUDY    33  31  91 NW6       29.76S WCI  28
BLAIR          CLOUDY    37  28  71 SW7       29.75S WCI  31
COLUMBUS       CLOUDY    28  25  88 CALM      29.77R
FREMONT        CLOUDY    32  27  81 CALM      29.77R
TEKAMAH        CLOUDY    34  26  72 CALM      29.76R
WAYNE          CLOUDY    34  33  96 CALM      29.76R
$$

NEZ050>053-065>068-078-088>093-200600-
SOUTHEAST NEBRASKA

CITY           SKY/WX    TMP DP  RH WIND       PRES   REMARKS
LINCOLN        CLOUDY    28  23  81 S3        29.77F
OMAHA EPPLEY   CLOUDY    34  27  75 S6        29.77R WCI  29
BEATRICE       CLOUDY    32  28  85 CALM      29.78R
FALLS CITY     CLOUDY    33  26  75 S6        29.79S WCI  28
NEBRASKA CITY  CLOUDY    34  30  86 S9        29.77S WCI  27
PLATTSMOUTH    CLOUDY    37  29  73 S7        29.77R WCI  32
$$

NEZ044-045-051>053-067-200600-
OMAHA AREA

CITY           SKY/WX    TMP DP  RH WIND       PRES   REMARKS
OMAHA EPPLEY   CLOUDY    34  27  75 S6        29.77R WCI  29
BLAIR          CLOUDY    37  28  71 SW7       29.75S WCI  31
FREMONT        CLOUDY    32  27  81 CALM      29.77R
MILLARD        CLOUDY    31  27  84 CALM      29.77R
OFFUTT AFB     CLOUDY    27  25  91 CALM      29.77R
PLATTSMOUTH    CLOUDY    37  29  73 S7        29.77R WCI  32
WAHOO          FAIR      35  27  73 N3        29.77R
$$




USA.gov is the U.S. government's official web portal to all federal, state and local government web resources and services.